[[{"header":{"parameterUnit":"m.s-1","parameterCategory":1,"la1":30.2991,"la2":30.254,"lo1":-89.0895,"lo2":-89.0444,"dy":0.0017,"dx":0.0017,"nx":28,"ny":28,"refTime":"2023-07-28T09:00:00:Z","depth":0,"parameterNumber":2,"parameterNumberName":"U-component_of_WINDS"},"data":[0,0,0,0,0,0,0,0,0,0,0,0,0,0,0,0,0,0,0,0,0,0,0,0,0,0,0,0,0,0,0,0,0,0,0,0,0,0,0,0,0,0,0,0,0,0,0,0,0,0,0,0,0,0,0,0,0,0,1.9617,1.9619,0,1.9762,1.9763,1.9765,1.9814,1.9814,1.9813,1.9813,1.9958,1.9962,1.9967,0,0,0,0,0,0,0,0,0,0,0,0,0,1.938,1.9384,1.9617,1.9619,1.9621,1.9761,1.9763,1.9765,1.9815,1.9814,1.9813,1.9813,1.9957,1.9962,1.9967,0,0,0,0,0,0,0,0,0,0,0,0,0,1.95,1.9386,1.9617,1.9662,1.9668,1.9761,1.9763,1.9766,1.9815,1.9814,1.9813,1.9812,1.9955,1.9961,1.9968,2.0026,0,0,1.9988,1.9991,0,0,0,0,0,0,0,0,1.9493,1.9508,1.9654,1.9659,1.9666,1.9769,1.9733,1.9853,1.9815,1.9759,1.9813,1.9812,1.9896,1.9907,1.9936,2.0032,2.0039,1.9989,1.9993,1.9995,1.9997,0,0,0,0,0,0,0,1.9485,1.9502,1.9674,1.9656,1.9663,1.9674,1.969,1.9756,1.983,1.9764,1.9768,1.9784,1.9899,1.993,1.994,2.0041,1.9988,1.9994,1.9998,2.0001,2.0191,2.0192,0,0,0,0,0,0,1.9469,1.9495,1.967,1.9679,1.9575,1.9679,1.9697,1.9737,1.983,1.9843,1.9785,1.9786,1.9919,1.9932,1.9945,2.0018,1.9995,2.0002,2.0005,2.019,2.0191,2.0192,0,0,0,0,0,0,1.9464,1.9484,1.9664,1.9588,1.9612,1.9684,1.9728,1.974,1.9771,1.9846,1.9859,1.9803,1.9919,1.9936,2.0005,2.0024,2.0005,2.0011,2.0189,2.019,2.0192,2.0165,0,0,0,0,0,0,1.9457,1.9482,1.9505,1.9588,1.9616,1.9722,1.973,1.9743,1.9782,1.9785,1.9866,1.9879,1.9919,1.9995,2.0012,2.0033,2.0016,2.0187,2.0189,2.0191,2.0165,2.0166,2.0167,0,0,0,0,0,1.9448,1.9492,1.9506,1.9527,1.9647,1.9723,1.9739,1.9785,1.9784,1.9807,1.9855,1.9876,2.0019,2.0002,2.0021,2.0044,2.0186,2.0189,2.0191,2.0164,2.0165,2.0166,0,0,0,0,0,0,1.9408,1.9503,1.9521,1.9592,1.9649,1.9731,1.9762,1.9785,1.9843,1.9843,1.9898,1.9916,1.9981,2.002,1.9998,2.0105,2.0104,2.011,2.0077,2.0079,2.008,2.0068,2.0021,0,0,0,0,0,1.9407,1.9463,1.9543,1.9598,1.9626,1.9689,1.9724,1.9756,1.9816,1.9841,1.9894,1.9951,2.0009,2.0046,2.0104,2.0171,2.0188,2.0196,2.0197,2.0197,2.0202,2.024,2.0244,2.02,2.02,2.02,0,0,1.9407,1.9466,1.9497,1.9592,1.964,1.9694,1.9709,1.9767,1.9808,1.9849,1.9918,1.9959,2.0027,2.0095,2.0127,2.0129,2.0218,2.0201,2.02,2.0205,2.0242,2.0246,2.025,2.0202,2.0202,2.0202,0,0,1.9434,1.9484,1.9536,1.9584,1.9657,1.9698,1.9711,1.979,1.9818,1.9889,1.9921,1.997,2.0069,2.0116,2.0152,2.0197,2.0218,2.0214,2.0219,2.0255,2.0258,2.0261,2.0276,2.0281,2.0219,2.0219,2.0219,0,1.9423,1.9509,1.9559,1.9616,1.9656,1.9697,1.9749,1.9792,1.9879,1.9906,1.9907,2.0032,2.008,2.0159,2.017,2.0199,2.0214,2.0205,2.0254,2.0258,2.0261,2.0276,2.0282,2.0218,2.0218,2.0218,2.0218,0,1.9492,1.9551,1.9583,1.9668,1.9712,1.9765,1.9823,1.9861,1.9888,1.993,2.0,2.006,2.013,2.0151,2.0178,2.0235,2.0233,2.0243,2.0243,2.0264,2.0278,2.0285,2.0216,2.0217,2.0217,2.0217,0,0,1.9497,1.9609,1.962,1.9658,1.9742,1.9787,1.9843,1.9912,1.9943,2.0002,2.0049,2.0132,2.0142,2.0183,2.0216,2.0248,2.0278,2.0254,2.0256,2.0256,2.0343,2.0334,2.034,2.0293,2.0294,2.0295,2.0337,0,1.9534,1.9635,1.9683,1.9763,1.9817,1.9856,1.9904,1.996,2.0,2.0051,2.0095,2.0153,2.0162,2.0187,2.022,2.0267,2.0296,2.0265,2.0336,2.0338,2.0317,2.0348,2.0339,2.0376,2.0343,2.0344,2.0345,0,1.9591,1.965,1.9736,1.9813,1.9837,1.988,1.9947,1.9996,2.0059,2.0086,2.0133,2.0164,2.0223,2.0219,2.03,2.0278,2.031,2.0337,2.034,2.0347,2.0342,2.0356,2.0388,2.0393,2.0355,2.0354,2.0353,0,1.9584,1.9686,1.9751,1.9782,1.9874,1.9903,1.9942,2.0005,2.0043,2.0102,2.0127,2.0192,2.0226,2.0275,2.0323,2.0316,2.0398,2.0399,2.0421,2.042,2.0436,2.0435,2.0474,2.0458,2.0458,2.0458,2.0458,0,1.962,1.9671,1.9749,1.9788,1.9846,1.9899,1.9955,1.9997,2.0052,2.01,2.0138,2.0181,2.0242,2.0293,2.0331,2.0391,2.0407,2.043,2.0439,2.0426,2.0423,2.0447,2.0445,2.0459,2.0459,2.0459,2.0459,0,1.9623,1.9677,1.975,1.9831,1.9852,1.9891,1.996,1.9999,2.0041,2.0101,2.0118,2.0183,2.0245,2.0298,2.0379,2.0405,2.0467,2.0479,2.0446,2.045,2.0469,2.0467,2.0525,2.0535,2.0513,2.0513,2.0513,0,1.9641,1.9682,1.9767,1.9802,1.9841,1.9897,1.9937,1.9991,2.0031,2.0106,2.0136,2.0201,2.0256,2.0352,2.0407,2.0469,2.0482,2.0498,2.0491,2.0477,2.0481,2.0478,2.0482,2.0498,2.0498,2.0498,2.0498,0,1.9669,1.9694,1.9751,1.9817,1.9864,1.9918,1.9974,2.0,2.0064,2.0106,2.0171,2.0213,2.0297,2.036,2.0428,2.0468,2.0493,2.05,2.0508,2.0495,2.0474,2.0484,2.0446,2.0498,2.0498,2.0498,2.0498,2.0498,1.968,1.9717,1.9783,1.9845,1.9893,1.9943,1.9984,2.0032,2.0087,2.0159,2.0188,2.0253,2.0315,2.041,2.0449,2.05,2.0504,2.0516,2.0519,2.0521,2.0519,2.0466,2.0513,2.0513,2.0513,2.0513,2.0513,0,1.9709,1.9753,1.981,1.9886,1.9935,1.9956,2.0018,2.0057,2.0114,2.0171,2.0224,2.0297,2.0359,2.0419,2.0483,2.0513,2.0526,2.0528,2.0526,2.0534,2.0512,2.0498,2.0516,2.0516,2.0516,2.0516,2.0516,2.0516,1.9729,1.9793,1.9826,1.9914,1.9958,2.0023,2.0057,2.0104,2.0149,2.023,2.0282,2.032,2.0378,2.0447,2.0504,2.052,2.0542,2.054,2.0559,2.0537,2.0536,2.0535,2.0522,2.0545,2.0545,2.0577,2.0577,2.0578]},{"header":{"parameterUnit":"m.s-1","parameterCategory":1,"la1":30.2991,"la2":30.254,"lo1":-89.0895,"lo2":-89.0444,"dy":0.0017,"dx":0.0017,"nx":28,"ny":28,"refTime":"2023-07-28T09:00:00:Z","depth":0,"parameterNumber":3,"parameterNumberName":"V-component_of_WINDS"},"data":[0,0,0,0,0,0,0,0,0,0,0,0,0,0,0,0,0,0,0,0,0,0,0,0,0,0,0,0,0,0,0,0,0,0,0,0,0,0,0,0,0,0,0,0,0,0,0,0,0,0,0,0,0,0,0,0,0,0,4.746,4.746,0,4.7454,4.7453,4.7453,4.7394,4.7392,4.7391,4.739,4.7384,4.7385,4.7386,0,0,0,0,0,0,0,0,0,0,0,0,0,4.742,4.7421,4.746,4.746,4.7459,4.7454,4.7453,4.7453,4.7394,4.7392,4.7391,4.7389,4.7383,4.7385,4.7386,0,0,0,0,0,0,0,0,0,0,0,0,0,4.7428,4.7421,4.746,4.7429,4.7426,4.7454,4.7453,4.7453,4.7395,4.7392,4.739,4.7388,4.7383,4.7384,4.7386,4.7442,0,0,4.7392,4.7393,0,0,0,0,0,0,0,0,4.7427,4.7429,4.7434,4.7431,4.7428,4.7422,4.7437,4.745,4.7395,4.7407,4.739,4.7387,4.7398,4.7399,4.7402,4.7442,4.7442,4.7392,4.7393,4.7394,4.7394,0,0,0,0,0,0,0,4.7427,4.7429,4.7457,4.7434,4.7431,4.7416,4.7414,4.7439,4.7415,4.7405,4.7401,4.7401,4.7396,4.7401,4.7402,4.7442,4.7392,4.7394,4.7395,4.7395,4.7526,4.7528,0,0,0,0,0,0,4.7431,4.7429,4.7457,4.7457,4.7422,4.7418,4.7417,4.7426,4.7415,4.7411,4.7403,4.7399,4.7399,4.74,4.7401,4.7466,4.7394,4.7396,4.7397,4.7524,4.7527,4.7529,0,0,0,0,0,0,4.743,4.7434,4.7458,4.7442,4.7444,4.7421,4.7433,4.7427,4.7432,4.7413,4.7408,4.7412,4.7397,4.7399,4.7432,4.7465,4.7396,4.7398,4.7521,4.7525,4.7528,4.7595,0,0,0,0,0,0,4.7429,4.7434,4.7455,4.7443,4.7445,4.7489,4.7435,4.7429,4.7435,4.7429,4.742,4.7416,4.7395,4.743,4.7434,4.7466,4.74,4.7518,4.7523,4.7527,4.759,4.76,4.7609,0,0,0,0,0,4.7428,4.7474,4.7456,4.746,4.7471,4.7491,4.7492,4.7467,4.7438,4.7459,4.7447,4.7417,4.7461,4.7434,4.7438,4.7471,4.7516,4.7521,4.7527,4.7585,4.7598,4.7609,0,0,0,0,0,0,4.7491,4.7472,4.7452,4.7496,4.7495,4.7481,4.7506,4.7481,4.7489,4.7483,4.7452,4.745,4.7488,4.7483,4.7454,4.7524,4.7483,4.7489,4.7526,4.7538,4.7548,4.7548,4.7401,0,0,0,0,0,4.7509,4.7527,4.751,4.755,4.7551,4.7529,4.7537,4.7517,4.7516,4.7515,4.7506,4.7505,4.7519,4.7528,4.754,4.7589,4.7586,4.7614,4.7623,4.7632,4.7637,4.7663,4.7675,4.7547,4.7547,4.7547,0,0,4.7549,4.7541,4.7554,4.7563,4.756,4.7579,4.7529,4.7552,4.7566,4.7519,4.755,4.7543,4.754,4.7582,4.7599,4.7578,4.7672,4.7638,4.7645,4.7646,4.7669,4.7681,4.7692,4.755,4.755,4.7549,0,0,4.763,4.7626,4.7658,4.7657,4.7654,4.7639,4.7647,4.7636,4.7629,4.766,4.7625,4.7641,4.7666,4.7665,4.7668,4.7749,4.7722,4.7754,4.7805,4.783,4.784,4.7849,4.7877,4.7888,4.776,4.776,4.776,0,4.7679,4.7706,4.7679,4.7703,4.7708,4.7667,4.7699,4.7699,4.77,4.7705,4.7681,4.771,4.7706,4.7746,4.7766,4.777,4.7778,4.7754,4.7841,4.7849,4.7857,4.7884,4.7895,4.7764,4.7763,4.7763,4.7763,0,4.7767,4.7786,4.7813,4.7815,4.7823,4.7851,4.7828,4.7839,4.7819,4.7807,4.7839,4.7832,4.7841,4.7849,4.783,4.7887,4.7874,4.7846,4.7804,4.7874,4.7898,4.7909,4.7769,4.7768,4.7767,4.7766,0,0,4.7887,4.7873,4.7883,4.7883,4.7876,4.7891,4.7918,4.7927,4.7937,4.7939,4.7961,4.7982,4.7956,4.796,4.794,4.7962,4.8027,4.7931,4.7931,4.7949,4.8089,4.8109,4.8122,4.8009,4.801,4.8012,4.8089,0,4.7964,4.8009,4.7985,4.8033,4.8051,4.8012,4.8035,4.8034,4.8023,4.8036,4.8024,4.804,4.8005,4.8006,4.8026,4.8014,4.8054,4.8009,4.8028,4.8029,4.8029,4.8135,4.8157,4.823,4.8098,4.81,4.8101,0,4.8061,4.8067,4.8117,4.8106,4.8113,4.8134,4.814,4.8154,4.8151,4.8142,4.8146,4.8121,4.8147,4.8106,4.814,4.811,4.8117,4.8112,4.8114,4.8115,4.8069,4.8138,4.8252,4.8263,4.8116,4.8115,4.8114,0,4.8143,4.8163,4.8196,4.8197,4.8186,4.8202,4.8198,4.8194,4.8201,4.8206,4.821,4.8219,4.8223,4.8231,4.8209,4.8181,4.8247,4.8204,4.8239,4.824,4.8254,4.8254,4.8371,4.826,4.826,4.8259,4.8259,0,4.8232,4.8264,4.8232,4.8252,4.8287,4.8259,4.8294,4.8286,4.8282,4.83,4.8267,4.8284,4.8255,4.8269,4.8252,4.8283,4.8286,4.8279,4.8274,4.8282,4.8282,4.8285,4.8279,4.8262,4.8262,4.8261,4.8261,0,4.8329,4.8309,4.8342,4.8329,4.8326,4.8353,4.8341,4.8359,4.8346,4.8369,4.8373,4.8352,4.8367,4.8347,4.836,4.8348,4.8391,4.8379,4.8392,4.8388,4.8425,4.8422,4.8548,4.8563,4.8442,4.8444,4.8445,0,4.8387,4.841,4.84,4.8409,4.8407,4.8423,4.843,4.8403,4.8412,4.8411,4.8429,4.8441,4.845,4.8476,4.8462,4.8472,4.8459,4.8503,4.8461,4.8468,4.846,4.8458,4.846,4.8512,4.8513,4.8514,4.8515,0,4.8491,4.848,4.8491,4.8499,4.8508,4.8513,4.8515,4.8525,4.8497,4.8508,4.8523,4.853,4.8543,4.8556,4.8562,4.8558,4.8533,4.8529,4.8537,4.8545,4.8552,4.8548,4.8415,4.8526,4.8525,4.8524,4.8523,4.8523,4.857,4.8589,4.8585,4.8598,4.8597,4.86,4.8616,4.8605,4.8617,4.8626,4.8609,4.8629,4.8625,4.8631,4.863,4.8645,4.8626,4.8639,4.8642,4.8645,4.8651,4.855,4.8646,4.8646,4.8645,4.8645,4.8645,0,4.8673,4.8668,4.868,4.8685,4.8695,4.867,4.8671,4.8681,4.8699,4.8698,4.8707,4.8724,4.8736,4.8724,4.8734,4.8748,4.8736,4.8751,4.875,4.8749,4.8667,4.8659,4.876,4.876,4.876,4.876,4.876,4.876,4.8727,4.8758,4.8746,4.8776,4.8771,4.879,4.8792,4.8795,4.8794,4.8815,4.8825,4.8816,4.8811,4.882,4.883,4.8826,4.8831,4.8851,4.8843,4.8766,4.8755,4.8744,4.8736,4.8852,4.8852,4.8923,4.8924,4.8924]}]]